Torna al catalogo

NOAA 17 DEB

AttivoPO
NORAD 48709·DEBRIS·🇺🇸 United States

Lanciato Jun 24, 2002 da Vandenberg Space Force Base

Loading…

Prossimi Passaggi (prossime 24 ore)

TLE

AggiornatoSource: Space-Track

Epoca: Sep 12, 2026, 23:09 UTC

1 48709U 02032AS  26255.96489177  .00004716  00000-0  10746-2 0  9994
2 48709  98.8021 258.4557 0008977 358.0675   2.0485 14.56336832288029

Traccia NOAA 17 DEB in tempo reale con AllMySat

Download on the App Store